San Luis Obispo, CA

10:52 AM PDT on July 20, 2017 (GMT -0700)
San Luis Obispo County-McChesney

Weather History for KSBP - April, 2013

Change the Weather History Date:

Saturday, April 13, 2013

  Actual Average Record
Temperature  
Mean Temperature 56 °F -  
Max Temperature 69 °F 69 °F 95 °F (2002)
Min Temperature 44 °F 45 °F 33 °F (1983)
Degree Days  
Heating Degree Days 9    
Growing Degree Days 6 (Base 50)    
Moisture  
Dew Point 47 °F    
Average Humidity 83    
Maximum Humidity 100    
Minimum Humidity 56    
Precipitation  
Precipitation 0.00 in - - ()
Sea Level Pressure  
Sea Level Pressure 29.88 in    
Wind  
Wind Speed 4 mph (SE)    
Max Wind Speed 15 mph    
Max Gust Speed -    
Visibility 7 miles    
Events      
Averages and records for this station are not official NWS values.
T = Trace of Precipitation, MM = Missing Value Source: NWS Daily Summary

Daily Weather History Graph

Daily Weather History Graph

Search for Another Location

Airport or City:

Trip Planner

Search our weather history database for the weather conditions in past years. The results will help you decide how hot, cold, wet, or windy it might be!

Date:

Astronomy

Apr. 13, 2013 Rise Set
Actual Time 6:32 AM PDT 7:34 PM PDT
Civil Twilight 6:06 AM PDT 8:00 PM PDT
Nautical Twilight 5:35 AM PDT 8:31 PM PDT
Astronomical Twilight 5:03 AM PDT 9:03 PM PDT
Moon 8:33 AM PDT (4/13) 10:55 PM PDT (4/13)
Length of Visible Light 13h 53m
Length of Day
13h 01m
Waxing Crescent, 11% of the Moon is Illuminated
Apr 13
Waxing Crescent
Apr 18
First Quarter
Apr 25
Full
May 2
Last Quarter
May 9
New

Hourly Weather History & Observations

Time (PDT) Temp. Windchill Dew Point Humidity Pressure Visibility Wind Dir Wind Speed Gust Speed Precip Events Conditions
12:56 AM 46.0 °F - 43.0 °F 89% 29.90 in 7.0 mi Calm Calm - N/A   Clear
1:45 AM 44.6 °F 42.2 °F 42.8 °F 93% 29.89 in 7.0 mi SE 4.6 mph - N/A   Mostly Cloudy
1:56 AM 44.1 °F 41.5 °F 42.1 °F 93% 29.88 in 7.0 mi ESE 4.6 mph - N/A   Overcast
2:56 AM 44.1 °F 42.5 °F 43.0 °F 96% 29.87 in 6.0 mi South 3.5 mph - N/A   Overcast
3:03 AM 44.6 °F 43.1 °F 44.6 °F 100% 29.87 in 1.8 mi South 3.5 mph - N/A   Overcast
3:23 AM 44.6 °F 42.2 °F 44.6 °F 100% 29.87 in 3.0 mi SE 4.6 mph - N/A   Overcast
3:46 AM 46.4 °F 45.2 °F 44.6 °F 93% 29.87 in 1.8 mi ESE 3.5 mph - N/A   Overcast
3:56 AM 46.9 °F - 46.0 °F 97% 29.87 in 1.8 mi ESE 3.5 mph - N/A   Overcast
4:04 AM 46.4 °F 44.3 °F 46.4 °F 100% 29.87 in 2.0 mi East 4.6 mph - N/A   Overcast
4:42 AM 48.2 °F - 46.4 °F 93% 29.87 in 3.0 mi East 5.8 mph - N/A   Overcast
4:56 AM 48.0 °F - 46.9 °F 96% 29.88 in 4.0 mi East 4.6 mph - N/A   Overcast
5:56 AM 48.9 °F - 48.0 °F 97% 29.88 in 4.0 mi ESE 5.8 mph - N/A   Overcast
6:56 AM 48.9 °F - 48.0 °F 97% 29.89 in 5.0 mi South 5.8 mph - N/A   Overcast
7:56 AM 48.9 °F - 46.9 °F 93% 29.91 in 5.0 mi SSW 3.5 mph - N/A   Overcast
8:56 AM 50.0 °F - 46.9 °F 89% 29.92 in 7.0 mi SSE 5.8 mph - N/A   Overcast
9:56 AM 52.0 °F - 48.0 °F 86% 29.93 in 10.0 mi ESE 4.6 mph - N/A   Overcast
10:19 AM 53.6 °F - 48.2 °F 82% 29.92 in 10.0 mi Calm Calm - N/A   Mostly Cloudy
10:44 AM 57.2 °F - 48.2 °F 72% 29.92 in 10.0 mi Calm Calm - N/A   Scattered Clouds
10:56 AM 59.0 °F - 48.9 °F 69% 29.92 in 10.0 mi Calm Calm - N/A   Scattered Clouds
11:56 AM 63.0 °F - 50.0 °F 63% 29.90 in 10.0 mi Variable 3.5 mph - N/A   Clear
12:56 PM 66.0 °F - 51.1 °F 59% 29.88 in 10.0 mi Variable 3.5 mph - N/A   Clear
1:56 PM 66.9 °F - 52.0 °F 59% 29.87 in 10.0 mi West 8.1 mph - N/A   Clear
2:56 PM 68.0 °F - 52.0 °F 56% 29.86 in 10.0 mi NW 9.2 mph - N/A   Clear
3:56 PM 66.0 °F - 50.0 °F 56% 29.84 in 10.0 mi NW 12.7 mph - N/A   Clear
4:56 PM 61.0 °F - 48.9 °F 64% 29.84 in 10.0 mi NW 15.0 mph - N/A   Clear
5:56 PM 60.1 °F - 48.9 °F 67% 29.84 in 10.0 mi WNW 8.1 mph - N/A   Clear
6:56 PM 55.0 °F - 48.0 °F 77% 29.86 in 7.0 mi NW 11.5 mph - N/A   Clear
7:56 PM 51.1 °F - 46.9 °F 86% 29.87 in 8.0 mi NW 5.8 mph - N/A   Clear
8:56 PM 51.1 °F - 46.0 °F 83% 29.88 in 7.0 mi Calm Calm - N/A   Clear
9:56 PM 50.0 °F - 45.0 °F 83% 29.89 in 7.0 mi Calm Calm - N/A   Clear
10:56 PM 48.9 °F - 45.0 °F 86% 29.88 in 7.0 mi Calm Calm - N/A   Clear
11:56 PM 45.0 °F 43.5 °F 43.0 °F 93% 29.89 in 7.0 mi WNW 3.5 mph - N/A   Clear